Location: Clinton NY
(43.0598°N, 75.3602°W)
Time: 07:20:39
(UTC-05:00)

Amateur Radio Satellites - All Passes

Search period start: 29 January 2015 06:50
Search period end: 30 January 2015 06:50
Location: Clinton NY, 43.0598°N, 75.3602°W

Satellite Date Start Highest point End Downlink Frequencies (MHz)
Time Altitude Azimuth
CUTE-I 29 Jan 06:54:29 06:59:48 62° 288° (WNW) 07:05:06 437.470
PCSat 29 Jan 06:56:45 06:58:50 12° 329° (NNW) 07:00:44 145.827
DANDE 29 Jan 07:01:33 07:05:29 13° 310° (NW) 07:08:52 436.750
YUBILEINY 29 Jan 07:03:24 07:12:13 80° 264° (W) 07:21:00 435.215
BRITE-PL 29 Jan 07:25:34 07:28:50 16° 86° (E) 07:32:18 437.365/2234.400
STRAND 1 29 Jan 07:47:28 07:49:05 11° 274° (W) 07:50:22 437.568
CUTE 1.7 + AOD 2 29 Jan 07:53:53 07:56:13 15° 89° (E) 07:58:43 437.475
VERMONT LUNAR 29 Jan 08:00:52 08:02:56 15° 152° (SSE) 08:05:04 437.305
Cubesat XI-IV 29 Jan 08:16:24 08:19:10 14° 301° (WNW) 08:21:43 437.490
HO-68 29 Jan 08:22:16 08:28:55 40° 97° (E) 08:35:37 435.675
SEEDS 29 Jan 08:23:49 08:27:21 26° 94° (E) 08:30:56 437.485
ANTELSAT 29 Jan 08:25:13 08:27:24 14° 62° (ENE) 08:29:47 437.575/2403.000
TIGRISAT 29 Jan 08:32:30 08:35:09 16° 63° (ENE) 08:37:59 435.000
NANOSAT C BR1 29 Jan 08:45:37 08:46:49 11° 62° (ENE) 08:48:15 145.865
RS-15 29 Jan 08:47:50 08:56:32 25° 347° (NNW) 09:05:20 29.354- 29.394
COMPASS 1 29 Jan 08:50:14 08:54:13 43° 98° (E) 08:58:12 437.405
DX 1 29 Jan 08:51:44 08:52:56 11° 88° (E) 08:54:24 434.975-435.025
FUNcube-1 29 Jan 08:57:45 08:58:47 11° 86° (E) 09:00:05 145.935
PHONESAT 2.4 29 Jan 08:58:16 09:01:03 21° 155° (SSE) 09:03:53 2401.200-2431.200
GOMX 1 29 Jan 08:58:20 09:03:50 76° 101° (ESE) 09:09:02 467.674
QB50P2 29 Jan 08:58:26 09:00:57 16° 64° (ENE) 09:03:38 145.880/145.840
CINEMA 3 29 Jan 08:59:13 09:03:31 31° 94° (E) 09:07:41 145.822/145.860
BRITE-PL 29 Jan 09:02:20 09:08:03 75° 286° (WNW) 09:13:31 437.365/2234.400
YUBILEINY 29 Jan 09:02:47 09:07:46 16° 283° (WNW) 09:12:13 435.215
CANX-2 29 Jan 09:04:06 09:08:21 83° 285° (WNW) 09:12:34 2200.000
QB50P1 29 Jan 09:07:17 09:10:15 19° 66° (ENE) 09:13:21 145.935-145.965
DOVE 4 29 Jan 09:11:07 09:16:23 73° 102° (ESE) 09:21:21 437.250
DELFI C3 29 Jan 09:12:43 09:16:06 26° 94° (E) 09:19:31 145.870
UWE-3 29 Jan 09:16:00 09:19:28 22° 92° (E) 09:22:57 435.000/436.395/437.385
AAUSAT CUBESAT 2 29 Jan 09:16:30 09:20:41 76° 102° (ESE) 09:24:49 437.432
BUGSAT 1 29 Jan 09:19:35 09:22:26 19° 66° (ENE) 09:25:27 437.445
POLYITAN 1 29 Jan 09:21:19 09:24:53 27° 68° (ENE) 09:28:34 437.675
UNISAT 6 29 Jan 09:23:11 09:27:42 47° 72° (ENE) 09:32:13 437.425
CUTE 1.7 + AOD 2 29 Jan 09:28:25 09:32:31 49° 287° (WNW) 09:36:35 437.475
Oscar 11 29 Jan 09:29:21 09:33:33 50° 99° (E) 09:37:45 145.826/435.025
VERMONT LUNAR 29 Jan 09:37:14 09:40:34 42° 167° (SSE) 09:43:54 437.305
POPSAT HIP 1 29 Jan 09:40:53 09:44:53 41° 71° (ENE) 09:48:58 437.405
VELOX 1 29 Jan 09:42:52 09:45:31 16° 90° (E) 09:48:20 145.980
DUCHIFAT 1 29 Jan 09:43:33 09:47:35 43° 71° (ENE) 09:51:41 145.980
ANTELSAT 29 Jan 09:58:56 10:03:40 76° 257° (WSW) 10:08:23 437.575/2403.000
SO-50 29 Jan 09:58:59 10:03:16 42° 117° (ESE) 10:07:45 436.795
SEEDS 29 Jan 09:59:36 10:03:10 27° 291° (WNW) 10:06:40 437.485
50 SAT 29 Jan 10:00:11 10:03:14 21° 93° (E) 10:06:21 437.505
AIST 2 29 Jan 10:03:14 10:05:35 14° 36° (NE) 10:08:03 435.215
UKube-1 29 Jan 10:04:36 10:08:59 67° 102° (ESE) 10:13:18 .
TIGRISAT 29 Jan 10:06:47 10:11:28 65° 259° (W) 10:16:09 435.000
BEESAT 2 29 Jan 10:07:03 10:10:38 27° 45° (NE) 10:14:13 435.950
HO-68 29 Jan 10:10:03 10:16:42 42° 296° (WNW) 10:23:16 435.675
CUBEBUG 2 29 Jan 10:11:33 10:16:11 81° 284° (WNW) 10:20:36 437.445
NANOSAT C BR1 29 Jan 10:17:52 10:22:08 78° 257° (WSW) 10:26:28 145.865
ZACube-1 29 Jan 10:19:20 10:23:50 87° 109° (ESE) 10:28:09 437.345
BEESAT 3 29 Jan 10:21:01 10:24:57 39° 49° (NE) 10:28:50 437.485
HUMSAT D 29 Jan 10:22:41 10:26:51 51° 99° (E) 10:30:56 437.325/437.525
DX 1 29 Jan 10:25:22 10:29:47 71° 286° (WNW) 10:34:09 434.975-435.025
COMPASS 1 29 Jan 10:26:51 10:29:40 17° 294° (WNW) 10:32:21 437.405
FUNcube-1 29 Jan 10:31:21 10:35:48 71° 285° (WNW) 10:40:06 145.935
QB50P2 29 Jan 10:32:19 10:36:30 52° 260° (W) 10:40:44 145.880/145.840
PHONESAT 2.4 29 Jan 10:35:43 10:39:14 50° 171° (S) 10:42:46 2401.200-2431.200
CINEMA 3 29 Jan 10:36:26 10:40:41 30° 292° (WNW) 10:44:43 145.822/145.860
GOMX 1 29 Jan 10:37:52 10:41:19 17° 299° (WNW) 10:44:29 467.674
QB50P1 29 Jan 10:41:49 10:45:53 42° 262° (W) 10:49:59 145.935-145.965
BRITE-PL 29 Jan 10:43:16 10:45:39 12° 302° (WNW) 10:47:44 437.365/2234.400
DELFI C3 29 Jan 10:47:55 10:51:19 26° 291° (WNW) 10:54:40 145.870
AISAT 29 Jan 10:49:41 10:54:14 81° 104° (ESE) 10:58:45 437.250
DOVE 4 29 Jan 10:50:20 10:53:32 16° 299° (WNW) 10:56:30 437.250
UWE-3 29 Jan 10:52:00 10:56:11 36° 290° (WNW) 11:00:11 435.000/436.395/437.385
ESTCUBE 1 29 Jan 10:52:36 10:56:50 38° 97° (E) 11:01:04 437.505/2401.250
BUGSAT 1 29 Jan 10:53:51 10:57:43 38° 262° (W) 11:01:37 437.445
AAUSAT CUBESAT 2 29 Jan 10:54:46 10:55:49 11° 298° (WNW) 10:56:38 437.432
POLYITAN 1 29 Jan 10:56:59 11:00:47 29° 265° (W) 11:04:33 437.675
UNISAT 6 29 Jan 11:01:21 11:04:46 19° 269° (W) 11:08:04 437.425
RS-15 29 Jan 11:04:26 11:13:41 29° 22° (NNE) 11:23:24 29.354- 29.394
Oscar 11 29 Jan 11:06:39 11:09:24 16° 295° (WNW) 11:12:01 145.826/435.025
GONETS M04 29 Jan 11:09:52 11:17:14 31° 66° (ENE) 11:24:46
SPROUT 29 Jan 11:13:08 11:15:30 15° 89° (E) 11:18:03 437.525
VERMONT LUNAR 29 Jan 11:15:02 11:18:29 56° 184° (S) 11:21:56 437.305
AIST 1 29 Jan 11:15:13 11:19:28 75° 97° (E) 11:23:45
POPSAT HIP 1 29 Jan 11:17:59 11:21:02 18° 269° (W) 11:23:59 437.405
VELOX 1 29 Jan 11:18:06 11:22:30 52° 287° (WNW) 11:26:51 145.980
DUCHIFAT 1 29 Jan 11:20:48 11:23:43 17° 269° (W) 11:26:31 145.980
CUBEBUG 1 29 Jan 11:26:18 11:30:47 82° 103° (ESE) 11:35:14 437.445
50 SAT 29 Jan 11:34:49 11:38:27 32° 290° (WNW) 11:42:01 437.505
SO-50 29 Jan 11:39:59 11:44:00 28° 317° (NW) 11:48:06 436.795
AIST 2 29 Jan 11:40:35 11:44:54 89° 54° (NE) 11:49:08 435.215
UKube-1 29 Jan 11:42:28 11:44:40 13° 298° (WNW) 11:46:41 .
BEESAT 2 29 Jan 11:45:06 11:48:56 34° 244° (WSW) 11:52:39 435.950
TISAT 1 29 Jan 11:49:04 11:52:59 34° 97° (E) 11:56:55 437.305
ZACube-1 29 Jan 11:58:33 11:59:33 11° 299° (WNW) 12:00:18 437.345
BEESAT 3 29 Jan 11:59:38 12:02:54 22° 247° (WSW) 12:06:02 437.485
HUMSAT D 29 Jan 11:59:41 12:02:16 16° 296° (WNW) 12:04:42 437.325/437.525
PCSat 29 Jan 12:12:38 12:17:13 27° 46° (NE) 12:21:52 145.827
PHONESAT 2.4 29 Jan 12:14:04 12:17:37 52° 188° (S) 12:21:11 2401.200-2431.200
SWISSCUBE 29 Jan 12:16:22 12:17:54 12° 87° (E) 12:19:45 437.505
Oscar 19 29 Jan 12:17:25 12:22:28 55° 72° (ENE) 12:27:34 437.125/150
AISAT 29 Jan 12:28:31 12:30:17 12° 299° (WNW) 12:31:50 437.250
ESTCUBE 1 29 Jan 12:29:58 12:33:32 23° 294° (WNW) 12:37:00 437.505/2401.250
BEESAT 29 Jan 12:31:09 12:33:55 16° 89° (E) 12:36:53 436.000
ITAMSAT 1 29 Jan 12:34:24 12:38:47 30° 66° (ENE) 12:43:17 435.822/435.867
ITUPSAT 1 29 Jan 12:34:54 12:37:54 17° 90° (E) 12:41:05 437.325
SPROUT 29 Jan 12:47:44 12:52:00 53° 287° (WNW) 12:56:13 437.525
VERMONT LUNAR 29 Jan 12:53:12 12:56:19 29° 200° (SSW) 12:59:24 437.305
CUBEBUG 1 29 Jan 13:05:03 13:06:36 11° 299° (WNW) 13:07:56 437.445
GONETS M04 29 Jan 13:06:12 13:14:44 62° 268° (W) 13:23:13
RS-15 29 Jan 13:17:20 13:28:38 70° 51° (NE) 13:40:28 29.354- 29.394
TISAT 1 29 Jan 13:25:14 13:28:40 23° 293° (WNW) 13:31:59 437.305
Gurwin Techsat 1B 29 Jan 13:31:02 13:36:16 65° 73° (ENE) 13:41:33 435.225
AO-7 29 Jan 13:33:11 13:39:38 27° 54° (NE) 13:46:19 29.400- 29.500
HORYU 2 29 Jan 13:39:22 13:42:56 24° 67° (ENE) 13:46:35 437.375
SWISSCUBE 29 Jan 13:51:40 13:56:28 77° 285° (WNW) 14:01:15 437.505
PHONESAT 2.4 29 Jan 13:52:52 13:55:50 23° 204° (SSW) 13:58:47 2401.200-2431.200
PCSat 29 Jan 13:55:42 14:00:57 52° 246° (WSW) 14:06:11 145.827
Oscar 19 29 Jan 13:58:29 14:02:14 19° 270° (W) 14:05:50 437.125/150
BEESAT 29 Jan 14:07:31 14:12:14 58° 287° (WNW) 14:16:55 436.000
ITUPSAT 1 29 Jan 14:11:31 14:16:13 55° 288° (WNW) 14:20:52 437.325
ITAMSAT 1 29 Jan 14:13:26 14:18:13 36° 263° (W) 14:22:59 435.822/435.867
DANDE 29 Jan 14:13:33 14:19:19 28° 62° (ENE) 14:23:59 436.750
STARS 29 Jan 14:19:42 14:23:26 26° 94° (E) 14:27:12 437.465
KKS-1 29 Jan 14:25:59 14:30:20 46° 99° (E) 14:34:39 437.445
CUSAT 1 29 Jan 14:41:47 14:48:02 52° 72° (ENE) 14:52:42 437.405
M-CUBED/EXP-1 PRIME 29 Jan 14:46:41 14:48:27 14° 98° (E) 14:50:23 437.505
GONETS M04 29 Jan 15:08:05 15:09:57 10° 287° (WNW) 15:11:05
Gurwin Techsat 1B 29 Jan 15:13:20 15:16:48 17° 271° (W) 15:20:03 435.225
HORYU 2 29 Jan 15:15:18 15:19:28 35° 263° (W) 15:23:36 437.375
AUBIESAT-1 29 Jan 15:18:45 15:21:45 31° 103° (ESE) 15:24:51 437.475
O/OREOS (USA 219) 29 Jan 15:20:12 15:23:43 24° 103° (ESE) 15:27:22 437.305
AO-7 29 Jan 15:23:18 15:31:42 80° 254° (WSW) 15:40:07 29.400- 29.500
RS-15 29 Jan 15:30:24 15:40:31 37° 252° (WSW) 15:50:45 29.354- 29.394
JAS-2 29 Jan 15:44:56 15:50:22 69° 74° (ENE) 15:55:34 435.910
STARS 29 Jan 15:56:01 15:59:57 31° 292° (WNW) 16:03:49 437.465
DANDE 29 Jan 15:56:49 16:03:12 45° 270° (W) 16:07:59 436.750
KKS-1 29 Jan 16:03:28 16:06:41 19° 295° (WNW) 16:09:46 437.445
MOZHAYETS 4 29 Jan 16:06:49 16:10:26 23° 93° (E) 16:14:10
Cubesat XI-IV 29 Jan 16:19:03 16:23:05 23° 63° (ENE) 16:27:15 437.490
M-CUBED/EXP-1 PRIME 29 Jan 16:20:39 16:23:39 32° 294° (WNW) 16:26:42 437.505
CUSAT 1 29 Jan 16:25:56 16:30:18 20° 279° (W) 16:33:47 437.405
CUTE-I 29 Jan 16:38:13 16:42:51 33° 67° (ENE) 16:47:37 437.470
SO-50 29 Jan 16:50:26 16:52:23 12° 29° (NNE) 16:54:31 436.795
AUBIESAT-1 29 Jan 16:54:29 16:56:33 15° 298° (WNW) 16:58:32 437.475
O/OREOS (USA 219) 29 Jan 16:58:50 17:02:59 35° 301° (WNW) 17:07:10 437.305
AO-7 29 Jan 17:21:02 17:25:59 16° 274° (W) 17:30:25 29.400- 29.500
JAS-2 29 Jan 17:33:09 17:36:09 14° 271° (W) 17:38:47 435.910
MOZHAYETS 4 29 Jan 17:43:37 17:47:49 35° 290° (WNW) 17:51:57
PRISM 29 Jan 17:54:59 17:58:40 31° 96° (E) 18:02:24 437.425
Cubesat XI-IV 29 Jan 17:57:43 18:02:53 51° 260° (W) 18:08:06 437.490
CUBESAT XI-V 29 Jan 17:59:49 18:03:49 28° 94° (E) 18:07:53 437.345
YUBILEINY 29 Jan 18:11:10 18:17:36 25° 82° (E) 18:24:21 435.215
STRAND 1 29 Jan 18:14:01 18:18:22 28° 94° (E) 18:22:47 437.568
CUTE-I 29 Jan 18:18:05 18:22:55 34° 264° (W) 18:27:45 437.470
SO-50 29 Jan 18:29:18 18:34:08 53° 51° (NE) 18:38:57 436.795
GOMX 1 29 Jan 18:32:23 18:34:33 13° 59° (ENE) 18:37:02 467.674
BRITE-PL 29 Jan 18:37:09 18:40:44 20° 62° (ENE) 18:44:38 437.365/2234.400
DOVE 4 29 Jan 18:43:28 18:45:08 12° 59° (ENE) 18:47:06 437.250
CUTE 1.7 + AOD 2 29 Jan 18:48:41 18:50:44 14° 64° (ENE) 18:52:58 437.475
HO-68 29 Jan 18:52:10 18:58:22 35° 62° (ENE) 19:04:43 435.675
SEEDS 29 Jan 19:17:24 19:20:42 23° 68° (ENE) 19:24:04 437.485
PRISM 29 Jan 19:30:45 19:34:06 23° 292° (WNW) 19:37:23 437.425
CUBEBUG 2 29 Jan 19:37:06 19:38:51 12° 61° (ENE) 19:40:51 437.445
CUBESAT XI-V 29 Jan 19:37:08 19:41:19 32° 291° (WNW) 19:45:26 437.345
COMPASS 1 29 Jan 19:42:47 19:46:35 34° 71° (ENE) 19:50:27 437.405
DX 1 29 Jan 19:48:40 19:50:23 12° 62° (ENE) 19:52:20 434.975-435.025
STRAND 1 29 Jan 19:52:55 19:57:41 38° 292° (WNW) 20:02:23 437.568
FUNcube-1 29 Jan 19:54:45 19:56:27 12° 62° (ENE) 19:58:22 145.935
CANX-2 29 Jan 19:57:48 20:02:06 79° 76° (ENE) 20:06:25 2200.000
CINEMA 3 29 Jan 20:01:29 20:05:54 34° 69° (ENE) 20:10:28 145.822/145.860
DELFI C3 29 Jan 20:02:30 20:05:26 20° 67° (ENE) 20:08:29 145.870
YUBILEINY 29 Jan 20:05:00 20:13:41 72° 281° (WNW) 20:22:25 435.215
GOMX 1 29 Jan 20:06:46 20:11:52 85° 73° (ENE) 20:17:18 467.674
AAUSAT CUBESAT 2 29 Jan 20:08:23 20:12:32 58° 74° (ENE) 20:16:41 437.432
SO-50 29 Jan 20:10:34 20:14:23 22° 248° (WSW) 20:18:04 436.795
BRITE-PL 29 Jan 20:13:42 20:18:43 61° 261° (W) 20:24:09 437.365/2234.400
UWE-3 29 Jan 20:14:08 20:17:45 23° 66° (ENE) 20:21:29 435.000/436.395/437.385
DOVE 4 29 Jan 20:17:00 20:22:04 79° 74° (ENE) 20:27:23 437.250
CUTE 1.7 + AOD 2 29 Jan 20:21:59 20:26:14 62° 260° (W) 20:30:31 437.475
Oscar 11 29 Jan 20:25:01 20:29:08 44° 72° (ENE) 20:33:18 145.826/435.025
ISS 29 Jan 20:33:57 20:35:20 12° 132° (SE) 20:36:50 145.825
HO-68 29 Jan 20:39:00 20:45:55 50° 260° (W) 20:52:50 435.675
VELOX 1 29 Jan 20:42:02 20:44:50 17° 64° (ENE) 20:47:47 145.980
50 SAT 29 Jan 20:49:16 20:51:51 17° 66° (ENE) 20:54:34 437.505
SEEDS 29 Jan 20:52:30 20:56:23 33° 264° (W) 21:00:15 437.485
UKube-1 29 Jan 21:00:27 21:04:44 64° 74° (ENE) 21:09:03 .
CUBEBUG 2 29 Jan 21:10:09 21:14:56 87° 257° (WSW) 21:19:45 437.445
HUMSAT D 29 Jan 21:15:33 21:19:38 42° 72° (ENE) 21:23:47 437.325/437.525
ZACube-1 29 Jan 21:15:48 21:20:25 77° 74° (ENE) 21:25:04 437.345
COMPASS 1 29 Jan 21:19:10 21:22:26 21° 267° (W) 21:25:37 437.405
DX 1 29 Jan 21:21:48 21:26:08 72° 258° (WSW) 21:30:31 434.975-435.025
AIST 1 29 Jan 21:22:06 21:25:21 21° 70° (ENE) 21:28:43
FUNcube-1 29 Jan 21:27:36 21:32:13 82° 258° (WSW) 21:36:51 145.935
DELFI C3 29 Jan 21:36:43 21:40:30 35° 263° (W) 21:44:16 145.870
CINEMA 3 29 Jan 21:38:47 21:43:08 30° 266° (W) 21:47:31 145.822/145.860
AAUSAT CUBESAT 2 29 Jan 21:46:42 21:48:39 13° 272° (W) 21:50:23 437.432
AISAT 29 Jan 21:48:33 21:53:00 82° 76° (ENE) 21:57:31 437.250
GOMX 1 29 Jan 21:48:38 21:50:53 12° 276° (W) 21:52:51 467.674
UWE-3 29 Jan 21:49:39 21:54:05 41° 263° (W) 21:58:32 435.000/436.395/437.385
ANTELSAT 29 Jan 21:51:20 21:54:38 21° 92° (E) 21:57:59 437.575/2403.000
ESTCUBE 1 29 Jan 21:53:20 21:57:29 39° 71° (ENE) 22:01:43 437.505/2401.250
DOVE 4 29 Jan 21:58:04 22:00:36 13° 275° (W) 22:02:54 437.250
TIGRISAT 29 Jan 21:58:35 22:02:10 24° 93° (E) 22:05:45 435.000
Oscar 11 29 Jan 22:02:36 22:05:35 17° 269° (W) 22:08:27 145.826/435.025
NANOSAT C BR1 29 Jan 22:03:28 22:06:07 16° 90° (E) 22:08:55 145.865
YUBILEINY 29 Jan 22:07:31 22:12:32 15° 306° (NW) 22:17:03 435.215
ISS 29 Jan 22:08:10 22:11:27 85° 327° (NNW) 22:14:45 145.825
SPROUT 29 Jan 22:09:06 22:11:16 14° 64° (ENE) 22:13:37 437.525
VELOX 1 29 Jan 22:16:45 22:21:04 51° 260° (W) 22:25:27 145.980
QB50P2 29 Jan 22:17:29 22:20:56 23° 93° (E) 22:24:26 145.880/145.840
50 SAT 29 Jan 22:22:41 22:26:40 45° 261° (W) 22:30:40 437.505
CUBEBUG 1 29 Jan 22:23:24 22:27:44 76° 75° (ENE) 22:32:09 437.445
QB50P1 29 Jan 22:26:25 22:30:09 29° 95° (E) 22:33:55 145.935-145.965
BUGSAT 1 29 Jan 22:35:25 22:39:06 28° 95° (E) 22:42:49 437.445
UKube-1 29 Jan 22:39:36 22:41:26 12° 272° (W) 22:43:01 .
POLYITAN 1 29 Jan 22:41:19 22:45:27 42° 98° (E) 22:49:32 437.675
TISAT 1 29 Jan 22:42:40 22:46:20 29° 69° (ENE) 22:50:05 437.305
UNISAT 6 29 Jan 22:51:09 22:55:39 90° 133° (SE) 23:00:00 437.425
HUMSAT D 29 Jan 22:52:34 22:55:40 18° 269° (W) 22:58:40 437.325/437.525
ZACube-1 29 Jan 22:55:56 22:57:26 11° 274° (W) 22:58:40 437.345
AIST 1 29 Jan 22:59:12 23:03:10 35° 268° (W) 23:07:08
POPSAT HIP 1 29 Jan 23:00:56 23:05:16 69° 101° (ESE) 23:09:32 437.405
DUCHIFAT 1 29 Jan 23:03:15 23:07:35 73° 102° (ESE) 23:11:52 145.980
SWISSCUBE 29 Jan 23:23:40 23:26:33 17° 63° (ENE) 23:29:37 437.505
ANTELSAT 29 Jan 23:27:29 23:31:38 38° 290° (WNW) 23:35:39 437.575/2403.000
ESTCUBE 1 29 Jan 23:31:10 23:34:35 21° 268° (W) 23:37:54 437.505/2401.250
TIGRISAT 29 Jan 23:35:00 23:39:02 32° 291° (WNW) 23:42:53 435.000
NANOSAT C BR1 29 Jan 23:38:09 23:42:18 46° 288° (WNW) 23:46:24 145.865
BEESAT 29 Jan 23:38:39 23:42:08 21° 65° (ENE) 23:45:46 436.000
SPROUT 29 Jan 23:42:40 23:46:56 61° 259° (W) 23:51:15 437.525
ITUPSAT 1 29 Jan 23:42:45 23:46:23 23° 65° (ENE) 23:50:08 437.325
ISS 29 Jan 23:45:37 23:48:20 23° 346° (NNW) 23:51:02 145.825
QB50P2 29 Jan 23:53:03 23:56:56 32° 290° (WNW) 00:00:44 145.880/145.840
QB50P1 30 Jan 00:02:21 00:06:00 27° 292° (WNW) 00:09:35 145.935-145.965
CUBEBUG 1 30 Jan 00:04:28 00:04:47 10° 274° (W) 00:04:48 437.445
BUGSAT 1 30 Jan 00:10:54 00:14:34 27° 291° (WNW) 00:18:10 437.445
GONETS M04 30 Jan 00:12:39 00:20:03 33° 85° (E) 00:27:38
POLYITAN 1 30 Jan 00:18:00 00:21:08 19° 294° (WNW) 00:24:07 437.675
TISAT 1 30 Jan 00:18:38 00:22:11 25° 266° (W) 00:25:43 437.305
Oscar 19 30 Jan 00:29:10 00:32:30 18° 90° (E) 00:36:01 437.125/150
UNISAT 6 30 Jan 00:31:07 00:31:47 10° 300° (WNW) 00:32:12 437.425
POPSAT HIP 1 30 Jan 00:38:43 00:40:40 13° 298° (WNW) 00:42:26 437.405
DUCHIFAT 1 30 Jan 00:41:10 00:42:56 12° 298° (WNW) 00:44:28 145.980
SWISSCUBE 30 Jan 00:59:18 01:04:00 60° 259° (WSW) 01:08:44 437.505
BEESAT 30 Jan 01:15:10 01:19:44 45° 261° (W) 01:24:19 436.000
STARS 30 Jan 01:17:52 01:21:36 27° 68° (ENE) 01:25:25 437.465
ITUPSAT 1 30 Jan 01:19:33 01:24:04 42° 262° (W) 01:28:36 437.325
ISS 30 Jan 01:23:12 01:25:39 19° 6° (N) 01:28:06 145.825
KKS-1 30 Jan 01:25:05 01:29:23 48° 72° (ENE) 01:33:44 437.445
O/OREOS (USA 219) 30 Jan 01:28:08 01:32:40 55° 64° (ENE) 01:37:11 437.305
M-CUBED/EXP-1 PRIME 30 Jan 01:36:08 01:39:32 28° 66° (ENE) 01:42:46 437.505
BEESAT 2 30 Jan 01:40:34 01:44:18 34° 116° (ESE) 01:48:07 435.950
AIST 2 30 Jan 01:41:24 01:43:50 15° 111° (ESE) 01:46:26 435.215
Gurwin Techsat 1B 30 Jan 01:46:55 01:51:06 24° 92° (E) 01:55:24 435.225
BEESAT 3 30 Jan 01:53:37 01:57:37 54° 120° (ESE) 02:01:41 437.485
Oscar 19 30 Jan 02:07:15 02:12:21 58° 287° (WNW) 02:17:21 437.125/150
GONETS M04 30 Jan 02:07:59 02:16:34 56° 285° (WNW) 02:25:06
AUBIESAT-1 30 Jan 02:08:13 02:12:08 60° 70° (ENE) 02:15:45 437.475
CUSAT 1 30 Jan 02:10:16 02:13:53 14° 79° (E) 02:18:05 437.405
ITAMSAT 1 30 Jan 02:24:42 02:29:57 74° 102° (ESE) 02:35:11 435.822/435.867
STARS 30 Jan 02:54:04 02:58:01 30° 264° (W) 03:01:57 437.465
PCSat 30 Jan 02:56:57 03:00:21 18° 106° (ESE) 03:03:58 145.827
ISS 30 Jan 02:59:35 03:02:46 43° 26° (NNE) 03:05:56 145.825
KKS-1 30 Jan 03:03:18 03:06:21 17° 269° (W) 03:09:15 437.445
HORYU 2 30 Jan 03:05:36 03:09:46 39° 98° (E) 03:13:57 437.375
O/OREOS (USA 219) 30 Jan 03:08:50 03:11:41 16° 259° (W) 03:14:20 437.305
MOZHAYETS 4 30 Jan 03:09:56 03:13:40 26° 68° (ENE) 03:17:29
M-CUBED/EXP-1 PRIME 30 Jan 03:11:20 03:14:33 22° 259° (W) 03:17:31 437.505
AIST 2 30 Jan 03:17:50 03:22:03 58° 307° (NW) 03:26:19 435.215
BEESAT 2 30 Jan 03:19:00 03:22:35 27° 315° (NW) 03:26:10 435.950
DANDE 30 Jan 03:23:13 03:30:45 41° 89° (E) 03:38:42 436.750
AO-7 30 Jan 03:24:21 03:31:37 33° 95° (E) 03:39:00 29.400- 29.500
Gurwin Techsat 1B 30 Jan 03:26:16 03:31:21 46° 290° (WNW) 03:36:23 435.225
BEESAT 3 30 Jan 03:33:01 03:36:06 20° 319° (NW) 03:39:09 437.485
RS-15 30 Jan 03:43:21 03:52:46 37° 108° (ESE) 04:02:30 29.354- 29.394
AUBIESAT-1 30 Jan 03:46:27 03:47:23 11° 264° (W) 03:48:05 437.475
CUSAT 1 30 Jan 03:47:35 03:55:43 66° 96° (E) 04:04:00 437.405
ITAMSAT 1 30 Jan 04:05:41 04:08:55 16° 299° (WNW) 04:11:57 435.822/435.867
GONETS M04 30 Jan 04:13:19 04:16:01 11° 310° (NW) 04:18:05
YUBILEINY 30 Jan 04:20:05 04:23:21 13° 51° (NE) 04:27:13 435.215
JAS-2 30 Jan 04:36:09 04:41:45 57° 101° (E) 04:48:04 435.910
ISS 30 Jan 04:36:18 04:39:11 27° 223° (SW) 04:42:01 145.825
PCSat 30 Jan 04:37:53 04:43:17 68° 302° (WNW) 04:48:44 145.827
HORYU 2 30 Jan 04:42:50 04:46:15 21° 294° (WNW) 04:49:31 437.375
MOZHAYETS 4 30 Jan 04:46:37 04:50:48 34° 264° (W) 04:54:57
PRISM 30 Jan 04:46:49 04:50:15 27° 68° (ENE) 04:53:45 437.425
CUTE-I 30 Jan 04:56:34 04:57:56 11° 85° (E) 04:59:41 437.470
AIST 2 30 Jan 05:00:25 05:01:39 11° 328° (NNW) 05:02:45 435.215
CUBESAT XI-V 30 Jan 05:04:24 05:08:23 30° 69° (ENE) 05:12:26 437.345
DANDE 30 Jan 05:06:00 05:14:07 52° 288° (WNW) 05:22:28 436.750
AO-7 30 Jan 05:16:44 05:24:52 58° 295° (WNW) 05:32:55 29.400- 29.500
STRAND 1 30 Jan 05:30:44 05:35:31 44° 70° (ENE) 05:40:23 437.568
CUSAT 1 30 Jan 05:31:59 05:39:22 32° 294° (WNW) 05:46:32 437.405
RS-15 30 Jan 05:53:43 06:04:34 66° 310° (NW) 06:15:35 29.354- 29.394
Cubesat XI-IV 30 Jan 06:13:48 06:19:08 60° 101° (E) 06:24:28 437.490
YUBILEINY 30 Jan 06:13:54 06:22:35 61° 77° (ENE) 06:31:18 435.215
JAS-2 30 Jan 06:22:13 06:26:39 23° 295° (WNW) 06:31:16 435.910
PRISM 30 Jan 06:22:16 06:25:46 26° 265° (W) 06:29:13 437.425
PCSat 30 Jan 06:24:45 06:27:49 15° 325° (NW) 06:30:44 145.827
CUTE-I 30 Jan 06:33:30 06:38:55 88° 104° (ESE) 06:44:19 437.470
CUBESAT XI-V 30 Jan 06:41:50 06:45:50 28° 266° (W) 06:49:48 437.345
